Regional Weather Roundup
Issued by NWS

Home | Current Version | Previous Version | Text Only | Print | Product List | Glossary On
Versions: 1 2 3 4 5 6 7 8 9 10 11 12 13 14 15 16 17 18 19 20 21 22 23 24 25 26 27 28 29 30 31 32 33 34 35 36 37 38 39 40 41 42 43 44 45 46 47 48 49 50
259
ASUS44 KFWD 011515
RWRTX
NORTH TEXAS HOURLY WEATHER ROUNDUP
NATIONAL WEATHER SERVICE FORT WORTH TX
1000 AM CDT SUN MAY 01 2016

NOTE: "FAIR" INDICATES FEW OR NO CLOUDS BELOW 12,000 FEET WITH NO
SIGNIFICANT WEATHER AND/OR OBSTRUCTIONS TO VISIBILITY.

TXZ118-119-011600-
DALLAS/FORT WORTH METROPLEX

CITY           SKY/WX    TMP DP  RH WIND       PRES   REMARKS
DFW AIRPORT    MOSUNNY   64  46  52 N18       30.02R
DALLAS LOVE    SUNNY     64  48  56 N13       30.01R
FTW MEACHAM    SUNNY     63  45  51 N17       30.02R
DAL-EXECUTIVE  SUNNY     64  49  57 N13       30.00R
FTW-ALLIANCE   MOSUNNY   61  43  51 N16       30.03R
FTW-NAS-JRB    SUNNY     62  44  51 N18       30.03R
FTW-SPINKS     SUNNY     61  48  63 N15G25    30.03R
ARLINGTON      SUNNY     66  48  52 N21       30.01R
GRAND PRAIRIE  SUNNY     64  46  52 N20G25    30.02R
ADDISON        SUNNY     63  50  63 N13G26    30.03R
MESQUITE       SUNNY     64  52  63 N16G25    30.00R
LANCASTER      SUNNY     64  47  52 N15G23    30.01R
$$

TXZ091>094-102>105-117-120-121-131>134-011600-
NORTH CENTRAL TEXAS

CITY           SKY/WX    TMP DP  RH WIND       PRES   REMARKS
SHRMAN/DENISON SUNNY     57  43  59 N15G22    30.05R
GAINESVILLE    SUNNY     57  42  57 N13G22    30.06S
BOWIE          SUNNY     55  41  57 N14G23    30.05S
BRIDGEPORT     SUNNY     58  44  60 N13       30.07S
DECATUR        SUNNY     57  41  54 N9        30.05R
DENTON         LGT RAIN  59  44  57 N16       30.04R
MCKINNEY       SUNNY     64  49  57 N15       30.02R
GREENVILLE     SUNNY     64  48  55 N10G21    30.00R
ROCKWALL       SUNNY     64  51  63 N16G23    30.00R
TERRELL        SUNNY     66  49  54 N15G22    30.00R
WAXAHACHIE     SUNNY     64  51  62 N18       30.00S
CLEBURNE       SUNNY     63  50  63 N22G28    30.02R
GRANBURY       SUNNY     62  46  55 N14G21    30.05R
$$

TXZ083>090-098>101-113>116-127>130-139>142-154-155-011600-
WESTERN NORTH TEXAS

CITY           SKY/WX    TMP DP  RH WIND       PRES   REMARKS
WICHITA FALLS  SUNNY     56  38  50 N21G29    30.08S
WF-KICKAPOO    SUNNY     57  38  47 N15G25    30.09R
VERNON         SUNNY     56  33  42 N18       30.10F
ABILENE        SUNNY     54  38  54 N14G24    30.09R
ABILENE-DYESS  CLOUDY    55  38  52 N18       30.08R
BRECKENRIDGE   SUNNY     58  38  47 NE17      30.07S HAZE
GRAHAM         SUNNY     56  40  55 N12G24    30.07R
MINERAL WELLS  SUNNY     59  41  51 N14G24    30.04R
STEPHENVILLE   SUNNY     59  44  56 N17G26    30.06R
COMANCHE       CLOUDY    58  46  66 N15G26    30.04S
BROWNWOOD      CLOUDY    59  45  58 N15G22    30.05R
COLEMAN        MOSUNNY   58  41  53 NE16G23   30.06R
$$

TXZ143>147-156>162-174-175-011600-
CENTRAL TEXAS

CITY           SKY/WX    TMP DP  RH WIND       PRES   REMARKS
WACO           SUNNY     67  55  65 NE18G24   29.97R
WACO-TSTC      SUNNY     66  55  68 N16G24    29.97R
WACO-MCGREGOR  PTSUNNY   66  58  75 N17G25    29.98R
HILLSBORO      SUNNY     64  51  64 N20       29.98S
CORSICANA      SUNNY     70  56  61 N10G21    29.98R
MEXIA          SUNNY     68  59  73 N10G22    29.94R
HEARNE         MOSUNNY   71  59  66 N12G21    29.94R
CAMERON        PTSUNNY   71  61  71 NE10G17   29.94R
TEMPLE         CLOUDY    65  61  87 N15       29.97R
KILLEEN        CLOUDY    64  60  87 NE13      29.97R
KILLEEN-SKYLRK CLOUDY    64  60  87 N13       29.98R
FORT HOOD      CLOUDY    64  60  87 NE15      29.96R
GATESVILLE     CLOUDY    63  54  72 MISG      30.02R
HAMILTON       CLOUDY    62  51  66 N15       30.02R
LAMPASAS       PTSUNNY   64  59  86 NE12      29.99R
$$

TXZ095>097-106>112-122>126-135>138-148>153-164>167-011600-
EAST TEXAS

CITY           SKY/WX    TMP DP  RH WIND       PRES   REMARKS
PARIS          SUNNY     64  46  52 N12G18    29.99R
SULPHUR SPRNGS   N/A     66  52  60 N18       30.00R
MOUNT PLEASANT SUNNY     68  55  61 NE8       29.98S
MINEOLA        SUNNY     70  55  60 N6        29.98R
TYLER          SUNNY     71  58  63 NE14      29.95R
LONGVIEW       CLOUDY    69  63  81 NE8G16    29.93R
MARSHALL       CLOUDY    70  64  81 N7        29.95R
ATHENS         SUNNY     68  55  64 N13       29.94S
PALESTINE      SUNNY     71  61  70 N13G20    29.94R
JACKSONVILLE   SUNNY     69  63  81 N8        29.94S
HENDERSON      CLOUDY    68  62  81 NE9       29.94R
CENTER         FAIR      75  68  77 N7        29.90R
NACOGDOCHES    SUNNY     73  64  73 NE5       29.90R
LUFKIN         MOSUNNY   75  65  70 NE7       29.89R
$$

SUPPLEMENTAL OBSERVATIONS (CENTRAL)

CITY           SKY/WX    TMP DP  RH WIND       PRES   REMARKS
LAKE TEXOMA      N/A     57  46  67 N13         N/A
CADDO GRASSLND   N/A     64  52  63 N6G15       N/A
PAT MAYSE LAKE   N/A     63  52  67 NW14        N/A
GREENVILLE       N/A     64  50  59 N16G22      N/A
CEDAR HILL       N/A     64  48  55 N10G24      N/A
ATHENS           N/A     72  59  64 N2          N/A
MCGREGOR         N/A     66  57  72 NE14G25     N/A
$$

SUPPLEMENTAL OBSERVATIONS (WEST)

CITY           SKY/WX    TMP DP  RH WIND       PRES   REMARKS
MILLERS CREEK    N/A     57  37  47 NE14G26     N/A
LBJ GRASSLAND    N/A     59  41  51 N10         N/A
HAMBY            N/A     55  37  50 NE13G21     N/A
IVIE RESERVOIR   N/A     61  43  51 NE15G25     N/A
COLORADO BEND    N/A     64  55  72 E9          N/A
$$

SUPPLEMENTAL OBSERVATIONS (EAST)

CITY           SKY/WX    TMP DP  RH WIND       PRES   REMARKS
CLARKSVILLE      N/A     66  50  55 N12         N/A
TEXARKANA        N/A     72  61  68 N5          N/A
LINDEN           N/A    N/A N/A N/A NE3         N/A
GILMER           N/A     70  59  68 N9          N/A
HENDERSON        N/A     70  63  78 NE9         N/A
N SABINE NF      N/A     79  68  69 MISG        N/A
S SABINE NF      N/A     77  68  73 NE5         N/A
$$

SUPPLEMENTAL OBSERVATIONS ARE A COLLECTION OF AUTOMATED INSTRUMENTS
THAT ARE MAINTAINED BY A VARIETY OF FEDERAL AND STATE AGENCIES.
CERTAIN ELEMENTS...SUCH AS HUMIDITY VALUES AND SUSTAINED WIND
SPEEDS...MAY BE APPROXIMATED.





USA.gov is the U.S. government's official web portal to all federal, state and local government web resources and services.